FW1688 Weather Reports


time (UTC)temp
F
wind
direction
speed
knots
gust
knots
rain 1hr
in
rain 24hr
in
rain mn
in
humidity
%
barometer
mb
20200531081519 75 137 0.0 0.0 0.00 0.00 0.00 91 1014.5
20200531080013 75 137 0.0 0.0 0.00 0.00 0.00 91 1014.5
20200531074502 75 137 0.0 0.0 0.00 0.00 0.00 91 1014.4
20200531073213 75 137 0.0 0.0 0.00 0.00 0.00 90 1014.5
20200531071703 75 137 0.0 0.0 0.00 0.00 0.00 90 1014.6
20200531070110 75 137 0.0 0.0 0.00 0.00 0.00 90 1014.7
20200531064700 76 137 0.0 0.0 0.00 0.00 0.00 89 1014.9
20200531063139 76 137 0.0 0.0 0.00 0.00 0.00 89 1015.1
20200531061623 76 137 0.0 0.0 0.00 0.00 0.00 88 1015.2
20200531060125 76 137 0.0 0.0 0.00 0.00 0.00 87 1015.3
20200531054653 77 137 0.0 0.0 0.00 0.00 0.00 87 1015.5
20200531053122 77 137 0.0 0.0 0.00 0.00 0.00 86 1015.7
20200531051603 77 137 0.0 0.0 0.00 0.00 0.00 84 1015.8
20200531050058 78 137 0.0 0.0 0.00 0.00 0.00 83 1016.1
20200531044712 78 138 0.0 0.0 0.00 0.00 0.00 83 1016.2
20200531043056 79 138 0.0 0.0 0.00 0.00 0.00 82 1016.2
20200531041647 79 143 0.0 0.9 0.00 0.00 0.00 81 1016.2
20200531040058 79 159 0.0 0.0 0.00 0.00 0.00 81 1016.3
20200531034536 79 118 0.0 1.7 0.00 0.00 0.00 81 1016.4
20200531033106 79 151 0.0 1.7 0.00 0.00 0.00 81 1016.6
20200531031530 80 154 0.0 0.9 0.00 0.00 0.00 80 1016.7
20200531030105 80 150 0.0 1.7 0.00 0.00 0.00 80 1016.6
20200531024538 80 170 0.0 3.5 0.00 0.00 0.00 80 1016.5
20200531023038 80 129 0.0 5.2 0.00 0.00 0.00 80 1016.4
20200531021542 80 117 0.0 3.5 0.00 0.00 0.00 80 1016.3
20200531020049 81 143 1.7 6.1 0.00 0.00 0.00 80 1016.3
20200531014541 81 154 0.9 5.2 0.00 0.09 0.00 80 1015.8
20200531013105 81 103 0.0 4.3 0.00 0.09 0.00 79 1015.7
20200531011542 81 104 0.9 5.2 0.00 0.09 0.00 79 1015.5
20200531004524 81 172 0.0 4.3 0.00 0.09 0.00 78 1015.3
20200531003024 81 167 0.0 4.3 0.00 0.09 0.00 78 1015.2
20200531001616 82 108 3.5 7.8 0.00 0.09 0.00 77 1015.1
20200531000031 82 134 1.7 7.8 0.00 0.09 0.00 75 1014.5
20200530234548 82 88 0.9 7.8 0.00 0.09 0.00 74 1014.4
20200530233021 82 134 2.6 6.1 0.00 0.09 0.00 75 1014.2
20200530231529 83 96 2.6 7.8 0.00 0.09 0.00 73 1014.1
20200530230052 83 103 1.7 7.0 0.00 0.09 0.00 72 1014.0
20200530223030 84 155 3.5 7.8 0.00 0.09 0.00 69 1014.3
20200530221516 85 98 2.6 7.8 0.00 0.09 0.00 65 1014.2
20200530220019 86 99 0.9 7.0 0.00 0.09 0.00 66 1014.2
20200530214547 86 122 2.6 8.7 0.00 0.09 0.00 66 1014.0
20200530213041 87 130 2.6 7.0 0.00 0.09 0.00 66 1013.9
20200530211531 87 229 2.6 8.7 0.00 0.09 0.00 66 1013.9
20200530210025 87 116 2.6 7.8 0.00 0.09 0.00 65 1014.0
20200530204524 87 94 0.9 7.0 0.00 0.09 0.00 64 1014.1
20200530203046 88 145 3.5 7.0 0.00 0.09 0.00 61 1014.2
20200530201507 88 123 1.7 5.2 0.00 0.09 0.00 63 1014.4
20200530200006 88 127 3.5 7.0 0.00 0.09 0.00 64 1014.6
20200530194519 89 109 2.6 6.1 0.00 0.09 0.00 61 1014.7
20200530193002 88 83 1.7 7.0 0.00 0.09 0.00 62 1014.9
20200530191501 88 84 1.7 7.8 0.00 0.09 0.00 64 1015.0
20200530190138 86 100 2.6 7.8 0.00 0.09 0.00 66 1015.1
20200530184645 87 146 0.9 7.8 0.00 0.09 0.00 65 1015.2
20200530183308 87 75 3.5 9.6 0.00 0.09 0.00 66 1015.4
20200530181617 88 208 3.5 7.8 0.00 0.09 0.00 62 1015.4
20200530180116 89 103 1.7 7.0 0.00 0.09 0.00 62 1015.4
20200530174619 89 140 3.5 7.8 0.00 0.09 0.00 62 1015.5
20200530173339 88 147 2.6 8.7 0.00 0.09 0.00 65 1015.6
20200530171737 88 188 2.6 7.8 0.00 0.09 0.00 61 1015.9
20200530170106 88 108 1.7 7.0 0.00 0.09 0.00 66 1016.0
20200530164631 87 77 3.5 8.7 0.00 0.09 0.00 65 1016.1
20200530163156 88 120 1.7 7.8 0.00 0.09 0.00 64 1016.1
20200530161627 88 153 2.6 7.0 0.00 0.09 0.00 65 1016.1
20200530160130 88 143 1.7 7.8 0.00 0.09 0.00 64 1016.2
20200530154612 87 161 1.7 9.6 0.00 0.09 0.00 66 1016.2
20200530153130 87 116 0.9 9.6 0.00 0.09 0.00 65 1016.4
20200530151614 87 121 1.7 7.0 0.00 0.09 0.00 63 1016.4
20200530150220 87 151 1.7 7.0 0.00 0.09 0.00 67 1016.4
20200530144636 86 83 0.9 8.7 0.00 0.09 0.00 69 1016.5
20200530143144 86 93 1.7 6.1 0.00 0.09 0.00 69 1016.6
20200530141623 85 132 2.6 7.0 0.00 0.09 0.00 69 1016.6
20200530140128 85 138 0.9 7.8 0.00 0.09 0.00 70 1016.7
20200530134608 83 114 0.0 3.5 0.00 0.09 0.00 76 1016.7
20200530133041 82 155 0.0 4.3 0.00 0.09 0.00 77 1016.6
20200530131548 82 142 0.9 4.3 0.00 0.09 0.00 77 1016.6
20200530130033 82 186 0.9 6.1 0.00 0.09 0.00 75 1016.6
20200530124539 83 84 0.9 6.1 0.00 0.09 0.00 74 1016.5
20200530123053 84 122 0.0 3.5 0.00 0.09 0.00 74 1016.4
20200530121626 83 108 0.9 5.2 0.00 0.09 0.00 76 1016.4
20200530120040 82 181 0.9 5.2 0.00 0.09 0.00 77 1016.4
20200530114530 82 114 0.0 0.0 0.00 0.09 0.00 80 1016.2
20200530113027 80 147 0.0 3.5 0.00 0.09 0.00 83 1016.1
20200530111526 78 140 0.0 0.9 0.00 0.09 0.00 85 1015.7
20200530110032 78 154 0.0 0.0 0.00 0.09 0.00 85 1015.8
20200530104524 78 146 0.0 1.7 0.00 0.09 0.00 84 1015.8
20200530103026 78 134 0.0 0.0 0.00 0.09 0.00 85 1015.6
20200530101527 78 162 0.0 0.9 0.00 0.09 0.00 84 1015.5
20200530100058 79 136 0.0 2.6 0.00 0.09 0.00 84 1015.4
20200530094525 79 129 0.0 2.6 0.00 0.09 0.00 84 1015.1
20200530093023 79 123 0.0 1.7 0.00 0.09 0.00 85 1015.0
20200530091509 79 112 0.0 2.6 0.00 0.09 0.00 85 1015.1
20200530090010 79 132 0.0 1.7 0.00 0.09 0.00 85 1015.3
20200530084529 79 137 0.0 2.6 0.00 0.09 0.00 86 1015.4
20200530083007 79 94 0.0 0.0 0.00 0.09 0.00 86 1015.4